Location: Biltmore Gardens
(41.6070°N, 83.4666°W)
Time: 13:47:32
(UTC+00:00)

Cosmos 158 Rocket - Pass Details

Date: 14 July 2020
Orbit: 698 x 794 km, 74.0° (Epoch: 04 August)

Event Time Altitude Azimuth Distance (km) Brightness Sun altitude
Rises 03:00:56 0° 209° (SSW) 3,066 6.9 -16.9°
Reaches altitude 10° 03:03:16 10° 213° (SSW) 2,154 6.1 -17.1°
Maximum altitude 03:08:02 57° 293° (WNW) 828 4.4 -17.7°
Drops below altitude 10° 03:12:54 10° 12° (NNE) 2,196 6.9 -18.2°
Sets 03:15:18 0° 16° (NNE) 3,131 7.7 -18.5°
